Regional Weather Roundup
Issued by NWS Cleveland, OH

Home | Current Version | Previous Version | Text Only | Print | Product List | Glossary Off
Versions: 1 2 3 4 5 6 7 8 9 10 11 12 13 14 15 16 17 18 19 20 21 22 23 24 25 26 27 28 29 30 31 32 33 34 35 36 37 38 39 40 41 42 43 44 45 46 47 48 49 50

000
ASUS41 KCLE 220310
RWRCLE
OHIO REGIONAL WEATHER ROUNDUP
NATIONAL WEATHER SERVICE CLEVELAND, OH
1100 PM EDT THU MAY 21 2015

NOTE: "FAIR" INDICATES FEW OR NO CLOUDS BELOW 12,000 FEET WITH NO
SIGNIFICANT WEATHER AND/OR OBSTRUCTIONS TO VISIBILITY.

OHZ001>008-015>018-024>027-034-035-043-044-220400-
   NORTHWEST OHIO

CITY           SKY/WX    TMP DP  RH WIND       PRES   REMARKS
DEFIANCE       CLEAR     50  36  58 CALM      30.04R
FINDLAY        CLEAR     51  38  60 SW7       30.04R
TOLEDO EXPRESS CLEAR     52  34  50 W7        30.02R
TOLEDO EXEC    CLEAR     53  35  50 SW6       30.03R
LIMA           CLEAR     50  38  63 SW7       30.06R
$$

OHZ009>014-019>023-028>033-038-089-220400-
   NORTHEAST OHIO

CITY           SKY/WX    TMP DP  RH WIND       PRES   REMARKS
CLE-HOPKINS    CLEAR     50  34  54 SW7       30.03R
CLE-LAKEFRONT  CLEAR     55  35  47 SW15      30.00R
CUY CO. ARPT   CLEAR     54  36  50 SW12      30.01R
LORAIN-ELYRIA  CLEAR     49  37  63 W9        30.03R
ASHTABULA      CLEAR     48  37  65 SW7       30.00R
AKRON-CANTON   CLEAR     47  35  63 SW6       30.04R
WOOSTER        CLEAR     47  35  63 SW6       30.05R
MANSFIELD      CLEAR     50  37  61 SW8       30.05R
YOUNGSTOWN     CLEAR     44  37  76 SW6       30.01R
$$

OHZ042-051>053-060>062-070>072-077>081-220400-
  SOUTHWEST OHIO

CITY           SKY/WX    TMP DP  RH WIND       PRES   REMARKS
CINC-COVINGTON CLEAR     49  41  74 SW3       30.13R
CINC-LUNKEN    CLEAR     45  42  89 CALM      30.14R
HAMILTON       CLEAR     44  42  93 CALM      30.13R
DAYTON         CLEAR     48  38  68 SW8       30.10R
WRIGHT-PAT AFB CLEAR     45  40  84 S3        30.09R
DAYTON GENERAL CLEAR     51  40  65 CALM      30.10R
WILMINGTON     CLEAR     46  40  79 S5        30.10R
$$

OHZ036-037-039>041-045>050-054>059-063>069-073>076-082>088-220400-
  CENTRAL AND SOUTHEAST OHIO

CITY           SKY/WX    TMP DP  RH WIND       PRES   REMARKS
COLUMBUS       CLEAR     51  39  63 CALM      30.08R
OSU AIRPORT    CLEAR     45  38  76 SW5       30.08R
BOLTON FIELD   NOT AVBL
RICKENBACK AFB CLEAR     48  40  74 SW6       30.09R
NEWARK         CLEAR     45  41  86 CALM      30.08R
MARION         CLEAR     49  36  61 SW7       30.06R
LANCASTER      CLEAR     42  38  85 E3        30.10R
ZANESVILLE     CLEAR     46  40  79 SW6       30.08R
NEW PHILLY     CLEAR     48  42  80 CALM      30.07R
$$


USA.gov is the U.S. government's official web portal to all federal, state and local government web resources and services.